User: anonymous   Login
Location: Dittelbrunn
(50.0738°N, 10.2196°E)
Time: 06:30:37
(UTC+00:00)
Language:

SL-08 RB Rocket - Orbit

View from above orbital plane
View from above orbital plane
View from above satellite
View from above satellite

Ground track
Ground track

The orbit data is extracted from the following two-line orbital elements,

1 26387U 00033D   20339.39353635  .00000201  00000-0  42451-4 0  9999
2 26387  97.7980  13.2444 0025036 260.8460 110.0266 14.68604162 93701
Epoch (UTC): 04 December 2020 09:26:41
Eccentricity: 0.0025036
inclination: 97.7980°
perigee height: 648 km
apogee height: 683 km
right ascension of ascending node: 13.2444°
argument of perigee: 260.8460°
revolutions per day: 14.68604162
mean anomaly at epoch: 110.0266°
orbit number at epoch: 9370

The dashed part of the orbit path shows where the satellite is in the earth's shadow,  

DLR